[[{"header":{"parameterUnit":"m.s-1","parameterCategory":1,"la1":30.2991,"la2":30.254,"lo1":-89.0895,"lo2":-89.0444,"dy":0.0017,"dx":0.0017,"nx":28,"ny":28,"refTime":"2026-03-02T09:00:00:Z","depth":0,"parameterNumber":2,"parameterNumberName":"U-component_of_WINDS"},"data":[0,0,0,0,0,0,0,0,0,0,0,0,0,0,0,0,0,0,0,0,0,0,0,0,0,0,0,0,0,0,0,0,0,0,0,0,0,0,0,0,0,0,0,0,0,0,0,0,0,0,0,0,0,0,0,0,0,0,-3.6001,-3.6003,0,-3.6163,-3.6165,-3.6167,-3.6234,-3.6233,-3.6233,-3.6233,-3.6399,-3.6403,-3.6408,0,0,0,0,0,0,0,0,0,0,0,0,0,-3.5755,-3.5759,-3.6001,-3.6003,-3.6005,-3.6163,-3.6165,-3.6167,-3.6234,-3.6233,-3.6233,-3.6232,-3.6397,-3.6403,-3.6408,0,0,0,0,0,0,0,0,0,0,0,0,0,-3.5884,-3.5761,-3.6001,-3.6057,-3.6064,-3.6162,-3.6165,-3.6168,-3.6234,-3.6233,-3.6233,-3.6232,-3.6395,-3.6402,-3.6409,-3.6463,0,0,-3.6431,-3.6434,0,0,0,0,0,0,0,0,-3.5877,-3.5893,-3.6047,-3.6054,-3.6061,-3.6178,-3.6139,-3.6267,-3.6234,-3.6169,-3.6233,-3.6232,-3.6326,-3.6338,-3.637,-3.6471,-3.6478,-3.6432,-3.6436,-3.6439,-3.6441,0,0,0,0,0,0,0,-3.5868,-3.5886,-3.6065,-3.6049,-3.6058,-3.6077,-3.6094,-3.6164,-3.6248,-3.6175,-3.618,-3.6198,-3.6329,-3.6363,-3.6374,-3.6481,-3.6431,-3.6438,-3.6442,-3.6445,-3.6641,-3.6642,0,0,0,0,0,0,-3.5849,-3.5878,-3.606,-3.607,-3.5966,-3.6081,-3.6101,-3.6141,-3.6248,-3.6264,-3.6199,-3.6201,-3.6351,-3.6366,-3.638,-3.6454,-3.6439,-3.6445,-3.645,-3.664,-3.6641,-3.6642,0,0,0,0,0,0,-3.5843,-3.5864,-3.6054,-3.5976,-3.6001,-3.6086,-3.613,-3.6144,-3.6178,-3.6266,-3.6281,-3.6217,-3.6351,-3.637,-3.6443,-3.646,-3.6449,-3.6455,-3.6639,-3.664,-3.6641,-3.6598,0,0,0,0,0,0,-3.5836,-3.5862,-3.5881,-3.5976,-3.6005,-3.6112,-3.6131,-3.6148,-3.619,-3.6194,-3.6287,-3.6302,-3.6352,-3.6432,-3.645,-3.647,-3.6461,-3.6637,-3.6639,-3.6641,-3.6598,-3.6598,-3.6598,0,0,0,0,0,-3.5827,-3.5862,-3.5882,-3.5904,-3.6031,-3.6112,-3.613,-3.6186,-3.6191,-3.6212,-3.627,-3.6299,-3.6456,-3.6439,-3.646,-3.6482,-3.6637,-3.6639,-3.6641,-3.6599,-3.6598,-3.6598,0,0,0,0,0,0,-3.5766,-3.5875,-3.5898,-3.5965,-3.6029,-3.6124,-3.6152,-3.6183,-3.6248,-3.6249,-3.6318,-3.6339,-3.6407,-3.6452,-3.6431,-3.6543,-3.6549,-3.6555,-3.651,-3.651,-3.651,-3.6496,-3.6467,0,0,0,0,0,-3.576,-3.5816,-3.5909,-3.5959,-3.599,-3.6066,-3.6103,-3.6142,-3.6212,-3.6239,-3.6302,-3.6369,-3.6434,-3.6475,-3.6539,-3.6607,-3.663,-3.6633,-3.6632,-3.6632,-3.6635,-3.6679,-3.6682,-3.6649,-3.6649,-3.6649,0,0,-3.5748,-3.5815,-3.5846,-3.5948,-3.6002,-3.6061,-3.6088,-3.6147,-3.6192,-3.6248,-3.6321,-3.6371,-3.6451,-3.6522,-3.6557,-3.6562,-3.6651,-3.6634,-3.6633,-3.6638,-3.6682,-3.6685,-3.6687,-3.665,-3.665,-3.665,0,0,-3.5757,-3.5812,-3.5861,-3.5917,-3.6,-3.6051,-3.6063,-3.6155,-3.619,-3.6265,-3.631,-3.6366,-3.6475,-3.6532,-3.6575,-3.6613,-3.6643,-3.6632,-3.6629,-3.667,-3.6673,-3.6676,-3.6691,-3.6695,-3.6637,-3.6637,-3.6637,0,-3.5731,-3.582,-3.5882,-3.5941,-3.5986,-3.6043,-3.6095,-3.6146,-3.6245,-3.6276,-3.6282,-3.6424,-3.6482,-3.6569,-3.6579,-3.6612,-3.663,-3.662,-3.6667,-3.6671,-3.6674,-3.669,-3.6695,-3.6635,-3.6635,-3.6635,-3.6635,0,-3.5786,-3.5847,-3.5878,-3.5974,-3.6023,-3.6078,-3.6152,-3.6194,-3.6232,-3.6283,-3.6362,-3.6434,-3.6516,-3.6541,-3.6576,-3.6635,-3.6637,-3.6654,-3.6661,-3.6674,-3.669,-3.6697,-3.6632,-3.6633,-3.6633,-3.6634,0,0,-3.5754,-3.589,-3.59,-3.5947,-3.6046,-3.6095,-3.6156,-3.6237,-3.6273,-3.6343,-3.6396,-3.6491,-3.651,-3.6559,-3.6602,-3.6639,-3.6668,-3.6653,-3.6656,-3.6653,-3.6741,-3.6726,-3.6732,-3.669,-3.6691,-3.6693,-3.6734,0,-3.5777,-3.5885,-3.5946,-3.603,-3.6089,-3.6148,-3.6201,-3.6269,-3.6321,-3.6381,-3.6439,-3.6505,-3.6524,-3.6555,-3.6594,-3.6656,-3.6686,-3.6654,-3.6742,-3.6744,-3.6718,-3.674,-3.6723,-3.6759,-3.6741,-3.6742,-3.6743,0,-3.5815,-3.5885,-3.5974,-3.6072,-3.6099,-3.6145,-3.6228,-3.6284,-3.6364,-3.64,-3.6458,-3.6503,-3.6572,-3.6577,-3.6674,-3.6651,-3.6692,-3.6729,-3.6732,-3.674,-3.6742,-3.6749,-3.6771,-3.6776,-3.6753,-3.6752,-3.6751,0,-3.5784,-3.5901,-3.5971,-3.6009,-3.6124,-3.6156,-3.6206,-3.6286,-3.6333,-3.6406,-3.6438,-3.6518,-3.6561,-3.6624,-3.6691,-3.6688,-3.6783,-3.6792,-3.6816,-3.6814,-3.683,-3.6828,-3.6859,-3.6858,-3.6858,-3.6858,-3.6858,0,-3.5802,-3.5854,-3.5959,-3.6002,-3.6065,-3.6138,-3.6198,-3.6253,-3.6325,-3.6382,-3.6438,-3.649,-3.6576,-3.664,-3.6693,-3.6768,-3.6787,-3.6819,-3.6832,-3.6813,-3.6809,-3.6839,-3.6838,-3.686,-3.6859,-3.6859,-3.6859,0,-3.5776,-3.5848,-3.5929,-3.6033,-3.6061,-3.6103,-3.6193,-3.6239,-3.6296,-3.6367,-3.6388,-3.6479,-3.6557,-3.6631,-3.6736,-3.6772,-3.6847,-3.6865,-3.6819,-3.6827,-3.6846,-3.6843,-3.6896,-3.6908,-3.6899,-3.6899,-3.6899,0,-3.5781,-3.5824,-3.5934,-3.5976,-3.6025,-3.6092,-3.6141,-3.6217,-3.6266,-3.6365,-3.64,-3.6483,-3.6553,-3.6677,-3.6753,-3.6835,-3.6855,-3.6868,-3.6867,-3.6848,-3.6856,-3.6852,-3.6858,-3.6866,-3.6865,-3.6865,-3.6865,0,-3.5784,-3.5819,-3.5887,-3.597,-3.6028,-3.6096,-3.6167,-3.6199,-3.6289,-3.6342,-3.6424,-3.6479,-3.6588,-3.6671,-3.6763,-3.6817,-3.6857,-3.6866,-3.6876,-3.6855,-3.6828,-3.6844,-3.6816,-3.6863,-3.6863,-3.6863,-3.6863,-3.6863,-3.5775,-3.5817,-3.5902,-3.5978,-3.604,-3.6106,-3.6155,-3.622,-3.629,-3.6384,-3.6426,-3.6509,-3.6595,-3.6723,-3.6777,-3.6845,-3.6854,-3.6868,-3.6871,-3.6873,-3.687,-3.6819,-3.6863,-3.6863,-3.6863,-3.6863,-3.6863,0,-3.5781,-3.584,-3.5909,-3.6007,-3.6068,-3.6103,-3.6185,-3.6233,-3.6306,-3.6382,-3.6452,-3.6549,-3.6631,-3.6716,-3.6804,-3.6843,-3.6864,-3.6863,-3.686,-3.6873,-3.6857,-3.6839,-3.6845,-3.6845,-3.6845,-3.6845,-3.6845,-3.6845,-3.5791,-3.5865,-3.5911,-3.6018,-3.6078,-3.616,-3.6204,-3.6267,-3.6329,-3.6434,-3.6503,-3.6559,-3.664,-3.6736,-3.6814,-3.6838,-3.6867,-3.6862,-3.689,-3.6873,-3.6873,-3.6874,-3.6858,-3.6868,-3.6868,-3.6901,-3.6901,-3.6901]},{"header":{"parameterUnit":"m.s-1","parameterCategory":1,"la1":30.2991,"la2":30.254,"lo1":-89.0895,"lo2":-89.0444,"dy":0.0017,"dx":0.0017,"nx":28,"ny":28,"refTime":"2026-03-02T09:00:00:Z","depth":0,"parameterNumber":3,"parameterNumberName":"V-component_of_WINDS"},"data":[0,0,0,0,0,0,0,0,0,0,0,0,0,0,0,0,0,0,0,0,0,0,0,0,0,0,0,0,0,0,0,0,0,0,0,0,0,0,0,0,0,0,0,0,0,0,0,0,0,0,0,0,0,0,0,0,0,0,1.7608,1.7608,0,1.7608,1.7608,1.7608,1.7705,1.7707,1.771,1.7712,1.7707,1.7704,1.7702,0,0,0,0,0,0,0,0,0,0,0,0,0,1.7689,1.7687,1.7608,1.7608,1.7608,1.7608,1.7608,1.7608,1.7704,1.7707,1.7711,1.7714,1.7708,1.7705,1.7702,0,0,0,0,0,0,0,0,0,0,0,0,0,1.7667,1.7686,1.7608,1.7656,1.766,1.7608,1.7608,1.7608,1.7704,1.7708,1.7711,1.7715,1.7709,1.7705,1.7701,1.7601,0,0,1.769,1.7688,0,0,0,0,0,0,0,0,1.7668,1.7664,1.7649,1.7653,1.7657,1.7661,1.7635,1.7605,1.7703,1.7687,1.7712,1.7717,1.7688,1.7686,1.7678,1.7601,1.76,1.7689,1.7687,1.7685,1.7684,0,0,0,0,0,0,0,1.767,1.7665,1.7608,1.7649,1.7654,1.7677,1.7678,1.7629,1.7666,1.7689,1.7696,1.7695,1.7691,1.7681,1.7678,1.76,1.7689,1.7686,1.7684,1.7682,1.7445,1.7441,0,0,0,0,0,0,1.7665,1.7665,1.7608,1.7608,1.7673,1.7672,1.7674,1.7655,1.7667,1.7672,1.7692,1.7699,1.7686,1.7682,1.7678,1.7564,1.7685,1.7682,1.768,1.7449,1.7444,1.744,0,0,0,0,0,0,1.7667,1.7659,1.7608,1.7639,1.7634,1.7667,1.7646,1.7653,1.7644,1.7669,1.7675,1.7675,1.7688,1.7684,1.7621,1.7565,1.768,1.7677,1.7454,1.7447,1.7442,1.7332,0,0,0,0,0,0,1.7668,1.7659,1.7621,1.7637,1.7632,1.755,1.7642,1.7651,1.7637,1.7648,1.7655,1.766,1.7691,1.7626,1.7617,1.7562,1.7674,1.7459,1.7451,1.7444,1.7341,1.7323,1.7308,0,0,0,0,0,1.7671,1.7588,1.7619,1.7611,1.7586,1.7547,1.7544,1.7583,1.7632,1.7595,1.7612,1.7659,1.7573,1.7618,1.7609,1.7552,1.7462,1.7453,1.7444,1.7348,1.7326,1.7308,0,0,0,0,0,0,1.7562,1.7591,1.7625,1.7546,1.7544,1.7563,1.7517,1.7558,1.754,1.755,1.7599,1.76,1.7529,1.7534,1.7585,1.7457,1.7526,1.7515,1.7456,1.7436,1.742,1.742,1.7671,0,0,0,0,0,1.753,1.7497,1.7524,1.7451,1.7448,1.7483,1.7467,1.7498,1.7497,1.7496,1.7508,1.7504,1.7476,1.7456,1.7432,1.7343,1.7346,1.7299,1.7282,1.7269,1.7258,1.7214,1.7194,1.741,1.741,1.741,0,0,1.746,1.7472,1.7448,1.7429,1.7431,1.7396,1.7481,1.7439,1.7413,1.7489,1.7431,1.744,1.7439,1.7363,1.733,1.7365,1.72,1.7257,1.7246,1.7243,1.7202,1.7182,1.7164,1.7404,1.7405,1.7406,0,0,1.7317,1.7322,1.7264,1.7265,1.7268,1.7293,1.7278,1.7293,1.7303,1.7246,1.7303,1.7273,1.7223,1.7221,1.7213,1.7074,1.7117,1.7064,1.6977,1.6934,1.6917,1.6902,1.6853,1.6835,1.7054,1.7053,1.7053,0,1.723,1.718,1.7227,1.7183,1.7174,1.7245,1.7186,1.7184,1.7178,1.7169,1.721,1.7152,1.7155,1.7081,1.7048,1.7039,1.7024,1.7063,1.6916,1.6901,1.6888,1.6842,1.6824,1.7047,1.7048,1.7048,1.7049,0,1.7074,1.7039,1.6991,1.6988,1.6973,1.6921,1.696,1.694,1.6973,1.6993,1.6936,1.6944,1.6924,1.6908,1.6939,1.6839,1.6861,1.6907,1.6978,1.686,1.6818,1.6801,1.7038,1.704,1.7042,1.7044,0,0,1.6859,1.6886,1.6867,1.6868,1.6878,1.6852,1.6804,1.6787,1.6769,1.6763,1.6725,1.6684,1.6728,1.6719,1.6751,1.6712,1.6603,1.6764,1.6765,1.6734,1.6496,1.6461,1.644,1.6633,1.663,1.6627,1.6496,0,1.6721,1.6643,1.6686,1.6602,1.6571,1.664,1.6599,1.66,1.6618,1.6594,1.6614,1.6585,1.6645,1.664,1.6605,1.6624,1.6556,1.6634,1.6597,1.6595,1.6595,1.6418,1.638,1.6255,1.648,1.6477,1.6475,0,1.6549,1.654,1.6453,1.6474,1.6462,1.6424,1.6414,1.639,1.6395,1.6411,1.6403,1.6445,1.64,1.647,1.6409,1.6461,1.6449,1.6456,1.6453,1.645,1.6528,1.6411,1.6217,1.6198,1.6449,1.6451,1.6453,0,1.6403,1.6368,1.6313,1.6311,1.6333,1.6305,1.6312,1.6321,1.6309,1.6299,1.6293,1.6277,1.6268,1.6255,1.6292,1.6339,1.6226,1.6299,1.6238,1.6237,1.621,1.6211,1.6011,1.6202,1.6202,1.6202,1.6203,0,1.6244,1.6189,1.6248,1.6214,1.6155,1.6205,1.6144,1.6159,1.6166,1.6136,1.6194,1.6164,1.6214,1.6189,1.6218,1.6164,1.6159,1.6171,1.6179,1.6165,1.6164,1.6157,1.6167,1.6198,1.6199,1.62,1.62,0,1.607,1.6107,1.6052,1.6079,1.6084,1.6039,1.6061,1.6031,1.6055,1.6016,1.601,1.6046,1.602,1.6056,1.6033,1.6052,1.5979,1.6,1.5978,1.5984,1.5921,1.5927,1.571,1.5685,1.5891,1.5889,1.5887,0,1.5966,1.5926,1.5949,1.5935,1.594,1.5914,1.5904,1.5953,1.5939,1.5943,1.5912,1.5892,1.5878,1.5834,1.5857,1.5841,1.5862,1.5788,1.5859,1.5848,1.5862,1.5864,1.586,1.5772,1.577,1.5768,1.5766,0,1.5779,1.58,1.5784,1.5775,1.5762,1.5756,1.5754,1.5739,1.579,1.5772,1.5748,1.5738,1.5716,1.5695,1.5686,1.5693,1.5737,1.5744,1.5729,1.5714,1.5704,1.571,1.5938,1.5748,1.575,1.5751,1.5752,1.5753,1.5637,1.5606,1.5619,1.5599,1.5604,1.5602,1.5576,1.5598,1.558,1.5568,1.5598,1.5567,1.5575,1.5567,1.5569,1.5545,1.5577,1.5555,1.555,1.5544,1.5535,1.5708,1.5543,1.5544,1.5544,1.5545,1.5545,0,1.5454,1.5466,1.5448,1.5447,1.5432,1.5479,1.548,1.5464,1.5437,1.5442,1.5428,1.5402,1.5383,1.5407,1.5392,1.5368,1.5389,1.5363,1.5365,1.5366,1.5506,1.5521,1.5347,1.5347,1.5347,1.5347,1.5347,1.5347,1.5356,1.5306,1.533,1.5284,1.5297,1.5269,1.5266,1.5265,1.527,1.5238,1.5224,1.5241,1.5253,1.5241,1.5226,1.5233,1.5225,1.5192,1.5206,1.5336,1.5356,1.5374,1.5389,1.519,1.519,1.5069,1.5068,1.5067]}]]